Вернуться в каталог

STARLINK-4416

АктивенСвязьSSO
NORAD 53212·PAYLOAD·🇺🇸 United States

Запущен Jul 22, 2022 с Vandenberg Space Force Base

Loading…

Ближайшие Пролёты (ближайшие 24 часа)

TLE

СвежийSource: CelesTrak SupGP

Эпоха: Sep 14, 2026, 21:33 UTC

1 53212C 22084Z   26257.89840278 -.00014922  00000+0 -46332-3 0  2574
2 53212  97.2831 313.7656 0001710  78.5114   3.8047 15.33438848    11

Отслеживайте STARLINK-4416 в реальном времени с AllMySat

Download on the App Store